Time,TemperatureF,DewpointF,PressureIn,WindDirection,WindDirectionDegrees,WindSpeedMPH,WindSpeedGustMPH,Humidity,HourlyPrecipIn,Conditions,Clouds,dailyrainin,SoftwareType,DateUTC
2013-06-30 00:02:00,80.1,38.9,29.86,SW,224,1.0,7.0,23,0.00,,,0.00,Wunderground v.1.15,2013-06-30 07:02:00,
2013-06-30 00:08:00,78.9,39.0,29.86,SW,217,2.0,7.0,24,0.00,,,0.00,Wunderground v.1.15,2013-06-30 07:08:00,
2013-06-30 00:13:00,78.4,39.7,29.86,WSW,246,2.0,7.0,25,0.00,,,0.00,Wunderground v.1.15,2013-06-30 07:13:00,
2013-06-30 00:19:00,78.4,39.7,29.86,SW,215,1.0,7.0,25,0.00,,,0.00,Wunderground v.1.15,2013-06-30 07:19:00,
2013-06-30 00:24:00,78.2,39.5,29.86,South,172,1.0,7.0,25,0.00,,,0.00,Wunderground v.1.15,2013-06-30 07:24:00,
2013-06-30 00:30:00,78.1,39.4,29.86,SSW,208,2.0,2.0,25,0.00,,,0.00,Wunderground v.1.15,2013-06-30 07:30:00,
2013-06-30 00:36:00,77.6,40.0,29.86,South,180,2.0,7.0,26,0.00,,,0.00,Wunderground v.1.15,2013-06-30 07:36:00,
2013-06-30 00:41:00,77.4,39.8,29.86,SW,218,2.0,4.0,26,0.00,,,0.00,Wunderground v.1.15,2013-06-30 07:41:00,
2013-06-30 00:47:00,77.2,39.6,29.86,SW,217,1.0,7.0,26,0.00,,,0.00,Wunderground v.1.15,2013-06-30 07:47:00,
2013-06-30 00:52:00,77.0,39.5,29.86,SSE,165,1.0,7.0,26,0.00,,,0.00,Wunderground v.1.15,2013-06-30 07:52:00,
2013-06-30 00:58:00,76.5,39.0,29.86,SSW,204,2.0,7.0,26,0.00,,,0.00,Wunderground v.1.15,2013-06-30 07:58:00,
2013-06-30 01:03:00,76.0,39.6,29.86,South,188,2.0,7.0,27,0.00,,,0.00,Wunderground v.1.15,2013-06-30 08:03:00,
2013-06-30 01:09:00,75.6,39.2,29.86,SSW,213,2.0,7.0,27,0.00,,,0.00,Wunderground v.1.15,2013-06-30 08:09:00,
2013-06-30 01:15:00,75.4,40.0,29.86,SSW,209,2.0,7.0,28,0.00,,,0.00,Wunderground v.1.15,2013-06-30 08:15:00,
2013-06-30 01:20:00,75.4,40.0,29.86,SW,215,1.0,7.0,28,0.00,,,0.00,Wunderground v.1.15,2013-06-30 08:20:00,
2013-06-30 01:26:00,76.0,39.6,29.86,WSW,241,1.0,7.0,27,0.00,,,0.00,Wunderground v.1.15,2013-06-30 08:26:00,
2013-06-30 01:31:00,76.4,39.9,29.86,WSW,243,2.0,7.0,27,0.00,,,0.00,Wunderground v.1.15,2013-06-30 08:31:00,
2013-06-30 01:37:00,76.3,39.8,29.86,SSW,198,2.0,7.0,27,0.00,,,0.00,Wunderground v.1.15,2013-06-30 08:37:00,
2013-06-30 01:43:00,75.6,39.2,29.86,SSW,205,2.0,7.0,27,0.00,,,0.00,Wunderground v.1.15,2013-06-30 08:43:00,
2013-06-30 01:48:00,75.1,39.8,29.86,WSW,255,2.0,7.0,28,0.00,,,0.00,Wunderground v.1.15,2013-06-30 08:48:00,
2013-06-30 01:54:00,75.5,39.2,29.86,SSW,204,2.0,7.0,27,0.00,,,0.00,Wunderground v.1.15,2013-06-30 08:54:00,
2013-06-30 02:00:00,75.6,39.2,29.86,West,269,1.0,1.0,27,0.00,,,0.00,Wunderground v.1.15,2013-06-30 09:00:00,
2013-06-30 02:05:00,75.6,39.2,29.86,SSW,211,1.0,7.0,27,0.00,,,0.00,Wunderground v.1.15,2013-06-30 09:05:00,
2013-06-30 02:11:00,75.5,39.2,29.86,South,169,1.0,7.0,27,0.00,,,0.00,Wunderground v.1.15,2013-06-30 09:11:00,
2013-06-30 02:17:00,75.4,39.1,29.86,SW,233,2.0,7.0,27,0.00,,,0.00,Wunderground v.1.15,2013-06-30 09:17:00,
2013-06-30 02:23:00,75.3,39.0,29.86,South,173,2.0,7.0,27,0.00,,,0.00,Wunderground v.1.15,2013-06-30 09:23:00,
2013-06-30 02:28:00,75.4,39.1,29.86,SW,222,1.0,7.0,27,0.00,,,0.00,Wunderground v.1.15,2013-06-30 09:28:00,
2013-06-30 02:34:00,75.5,39.2,29.86,South,191,1.0,7.0,27,0.00,,,0.00,Wunderground v.1.15,2013-06-30 09:34:00,
2013-06-30 02:39:00,75.7,38.4,29.86,SSW,195,1.0,7.0,26,0.00,,,0.00,Wunderground v.1.15,2013-06-30 09:39:00,
2013-06-30 02:45:00,75.3,38.0,29.86,SSW,198,1.0,7.0,26,0.00,,,0.00,Wunderground v.1.15,2013-06-30 09:45:00,
2013-06-30 02:51:00,74.8,38.6,29.86,South,188,2.0,7.0,27,0.00,,,0.00,Wunderground v.1.15,2013-06-30 09:51:00,
2013-06-30 02:57:00,74.9,38.7,29.86,SSW,205,2.0,7.0,27,0.00,,,0.00,Wunderground v.1.15,2013-06-30 09:57:00,
2013-06-30 03:02:00,74.8,38.6,29.86,SSW,196,1.0,7.0,27,0.00,,,0.00,Wunderground v.1.15,2013-06-30 10:02:00,
2013-06-30 03:08:00,74.4,38.2,29.86,SSW,203,1.0,7.0,27,0.00,,,0.00,Wunderground v.1.15,2013-06-30 10:08:00,
2013-06-30 03:13:00,74.4,38.2,29.86,SSW,210,0.0,7.0,27,0.00,,,0.00,Wunderground v.1.15,2013-06-30 10:13:00,
2013-06-30 03:19:00,74.3,38.1,29.86,SW,219,0.0,7.0,27,0.00,,,0.00,Wunderground v.1.15,2013-06-30 10:19:00,
2013-06-30 03:25:00,73.9,37.8,29.87,SW,214,1.0,7.0,27,0.00,,,0.00,Wunderground v.1.15,2013-06-30 10:25:00,
2013-06-30 03:31:00,73.4,38.3,29.87,SSE,167,2.0,7.0,28,0.00,,,0.00,Wunderground v.1.15,2013-06-30 10:31:00,
2013-06-30 03:37:00,73.7,37.6,29.87,SSE,155,2.0,7.0,27,0.00,,,0.00,Wunderground v.1.15,2013-06-30 10:37:00,
2013-06-30 03:43:00,73.4,37.4,29.87,SSW,192,2.0,7.0,27,0.00,,,0.00,Wunderground v.1.15,2013-06-30 10:43:00,
2013-06-30 03:48:00,73.1,38.0,29.87,SW,215,3.0,7.0,28,0.00,,,0.00,Wunderground v.1.15,2013-06-30 10:48:00,
2013-06-30 03:54:00,73.3,38.2,29.87,SSE,167,2.0,7.0,28,0.00,,,0.00,Wunderground v.1.15,2013-06-30 10:54:00,
2013-06-30 04:00:00,73.9,37.8,29.87,WSW,237,1.0,7.0,27,0.00,,,0.00,Wunderground v.1.15,2013-06-30 11:00:00,
2013-06-30 04:06:00,74.0,37.9,29.87,SW,214,1.0,7.0,27,0.00,,,0.00,Wunderground v.1.15,2013-06-30 11:06:00,
2013-06-30 04:11:00,73.9,37.8,29.87,SSW,197,2.0,7.0,27,0.00,,,0.00,Wunderground v.1.15,2013-06-30 11:11:00,
2013-06-30 04:17:00,73.9,37.8,29.87,SSW,200,3.0,7.0,27,0.00,,,0.00,Wunderground v.1.15,2013-06-30 11:17:00,
2013-06-30 04:22:00,73.9,37.8,29.87,SSW,205,3.0,7.0,27,0.00,,,0.00,Wunderground v.1.15,2013-06-30 11:22:00,
2013-06-30 04:28:00,73.9,37.8,29.87,SSW,204,2.0,7.0,27,0.00,,,0.00,Wunderground v.1.15,2013-06-30 11:28:00,
2013-06-30 04:34:00,74.0,37.9,29.88,WSW,250,1.0,7.0,27,0.00,,,0.00,Wunderground v.1.15,2013-06-30 11:34:00,
2013-06-30 04:39:00,74.4,38.2,29.87,SW,231,2.0,7.0,27,0.00,,,0.00,Wunderground v.1.15,2013-06-30 11:39:00,
2013-06-30 04:45:00,75.0,38.7,29.88,West,264,2.0,7.0,27,0.00,,,0.00,Wunderground v.1.15,2013-06-30 11:45:00,
2013-06-30 04:50:00,75.9,38.5,29.88,SSW,209,2.0,7.0,26,0.00,,,0.00,Wunderground v.1.15,2013-06-30 11:50:00,
2013-06-30 04:56:00,75.7,38.4,29.88,SSE,165,2.0,7.0,26,0.00,,,0.00,Wunderground v.1.15,2013-06-30 11:56:00,
2013-06-30 05:01:00,75.2,37.9,29.88,SSE,160,2.0,7.0,26,0.00,,,0.00,Wunderground v.1.15,2013-06-30 12:01:00,
2013-06-30 05:07:00,75.2,37.9,29.88,SSW,210,3.0,7.0,26,0.00,,,0.00,Wunderground v.1.15,2013-06-30 12:07:00,
2013-06-30 05:13:00,75.2,37.9,29.88,WSW,239,2.0,7.0,26,0.00,,,0.00,Wunderground v.1.15,2013-06-30 12:13:00,
2013-06-30 05:19:00,75.3,38.0,29.88,SW,218,1.0,7.0,26,0.00,,,0.00,Wunderground v.1.15,2013-06-30 12:19:00,
2013-06-30 05:24:00,75.2,37.9,29.88,SSW,195,2.0,7.0,26,0.00,,,0.00,Wunderground v.1.15,2013-06-30 12:24:00,
2013-06-30 05:30:00,75.2,37.9,29.88,SSW,193,1.0,7.0,26,0.00,,,0.00,Wunderground v.1.15,2013-06-30 12:30:00,
2013-06-30 05:36:00,75.9,38.5,29.88,WSW,240,1.0,7.0,26,0.00,,,0.00,Wunderground v.1.15,2013-06-30 12:36:00,
2013-06-30 05:41:00,76.7,38.2,29.88,WSW,254,1.0,3.0,25,0.00,,,0.00,Wunderground v.1.15,2013-06-30 12:41:00,
2013-06-30 05:47:00,77.4,38.8,29.88,SSW,201,1.0,7.0,25,0.00,,,0.00,Wunderground v.1.15,2013-06-30 12:47:00,
2013-06-30 05:52:00,77.4,38.8,29.88,SSW,210,2.0,7.0,25,0.00,,,0.00,Wunderground v.1.15,2013-06-30 12:52:00,
2013-06-30 05:58:00,77.4,38.8,29.88,WSW,257,2.0,7.0,25,0.00,,,0.00,Wunderground v.1.15,2013-06-30 12:58:00,
2013-06-30 06:04:00,77.5,38.9,29.88,SSW,205,1.0,7.0,25,0.00,,,0.00,Wunderground v.1.15,2013-06-30 13:04:00,
2013-06-30 06:10:00,77.7,39.1,29.88,WSW,249,0.0,7.0,25,0.00,,,0.00,Wunderground v.1.15,2013-06-30 13:10:00,
2013-06-30 06:16:00,78.3,38.5,29.88,SW,231,0.0,7.0,24,0.00,,,0.00,Wunderground v.1.15,2013-06-30 13:16:00,
2013-06-30 06:22:00,79.0,39.1,29.89,SW,218,0.0,7.0,24,0.00,,,0.00,Wunderground v.1.15,2013-06-30 13:22:00,
2013-06-30 06:27:00,79.3,39.4,29.89,SSW,205,1.0,7.0,24,0.00,,,0.00,Wunderground v.1.15,2013-06-30 13:27:00,
2013-06-30 06:33:00,79.4,39.4,29.89,SW,217,1.0,7.0,24,0.00,,,0.00,Wunderground v.1.15,2013-06-30 13:33:00,
2013-06-30 06:38:00,79.5,39.5,29.89,SSW,205,1.0,7.0,24,0.00,,,0.00,Wunderground v.1.15,2013-06-30 13:38:00,
2013-06-30 06:44:00,79.7,39.7,29.89,SW,218,0.0,7.0,24,0.00,,,0.00,Wunderground v.1.15,2013-06-30 13:44:00,
2013-06-30 06:50:00,80.1,40.0,29.89,SSW,207,0.0,7.0,24,0.00,,,0.00,Wunderground v.1.15,2013-06-30 13:50:00,
2013-06-30 06:55:00,80.3,40.2,29.89,SW,221,0.0,7.0,24,0.00,,,0.00,Wunderground v.1.15,2013-06-30 13:55:00,
2013-06-30 07:01:00,80.7,40.5,29.89,SSE,166,1.0,7.0,24,0.00,,,0.00,Wunderground v.1.15,2013-06-30 14:01:00,
2013-06-30 07:07:00,81.0,40.8,29.89,SSW,207,1.0,7.0,24,0.00,,,0.00,Wunderground v.1.15,2013-06-30 14:07:00,
2013-06-30 07:12:00,81.5,41.2,29.89,SSW,192,0.0,7.0,24,0.00,,,0.00,Wunderground v.1.15,2013-06-30 14:12:00,
2013-06-30 07:18:00,82.1,41.7,29.89,SSW,192,0.0,7.0,24,0.00,,,0.00,Wunderground v.1.15,2013-06-30 14:18:00,
2013-06-30 07:24:00,83.2,41.5,29.89,SSW,192,0.0,7.0,23,0.00,,,0.00,Wunderground v.1.15,2013-06-30 14:24:00,
2013-06-30 07:29:00,84.3,42.5,29.89,SE,146,0.0,7.0,23,0.00,,,0.00,Wunderground v.1.15,2013-06-30 14:29:00,
2013-06-30 07:35:00,85.5,43.5,29.89,SE,132,0.0,7.0,23,0.00,,,0.00,Wunderground v.1.15,2013-06-30 14:35:00,
2013-06-30 07:40:00,87.2,41.2,29.89,East,90,0.0,7.0,20,0.00,,,0.00,Wunderground v.1.15,2013-06-30 14:40:00,
2013-06-30 07:46:00,88.9,41.3,29.89,ENE,72,0.0,7.0,19,0.00,,,0.00,Wunderground v.1.15,2013-06-30 14:46:00,
2013-06-30 07:52:00,89.6,39.0,29.89,ESE,114,2.0,7.0,17,0.00,,,0.00,Wunderground v.1.15,2013-06-30 14:52:00,
2013-06-30 07:57:00,89.8,39.2,29.88,ESE,115,2.0,7.0,17,0.00,,,0.00,Wunderground v.1.15,2013-06-30 14:57:00,
2013-06-30 08:03:00,89.6,39.0,29.88,SE,124,2.0,7.0,17,0.00,,,0.00,Wunderground v.1.15,2013-06-30 15:03:00,
2013-06-30 08:09:00,89.1,38.6,29.88,NE,43,3.0,7.0,17,0.00,,,0.00,Wunderground v.1.15,2013-06-30 15:09:00,
2013-06-30 08:14:00,89.3,38.8,29.88,East,93,4.0,7.0,17,0.00,,,0.00,Wunderground v.1.15,2013-06-30 15:14:00,
2013-06-30 08:20:00,90.3,39.6,29.88,ENE,74,3.0,7.0,17,0.00,,,0.00,Wunderground v.1.15,2013-06-30 15:20:00,
2013-06-30 08:25:00,90.9,38.5,29.88,ENE,68,3.0,8.0,16,0.00,,,0.00,Wunderground v.1.15,2013-06-30 15:25:00,
2013-06-30 08:31:00,91.1,38.7,29.88,SE,129,4.0,7.0,16,0.00,,,0.00,Wunderground v.1.15,2013-06-30 15:31:00,
2013-06-30 08:37:00,91.5,39.0,29.88,SE,133,4.0,7.0,16,0.00,,,0.00,Wunderground v.1.15,2013-06-30 15:37:00,
2013-06-30 08:43:00,91.3,38.8,29.88,NE,55,4.0,8.0,16,0.00,,,0.00,Wunderground v.1.15,2013-06-30 15:43:00,
2013-06-30 08:48:00,91.2,38.7,29.88,WSW,248,4.0,8.0,16,0.00,,,0.00,Wunderground v.1.15,2013-06-30 15:48:00,
2013-06-30 08:54:00,91.1,38.7,29.88,ENE,71,4.0,9.0,16,0.00,,,0.00,Wunderground v.1.15,2013-06-30 15:54:00,
2013-06-30 09:00:00,91.1,38.7,29.88,SE,141,4.0,4.0,16,0.00,,,0.00,Wunderground v.1.15,2013-06-30 16:00:00,
2013-06-30 09:05:00,91.6,39.1,29.88,ESE,109,3.0,7.0,16,0.00,,,0.00,Wunderground v.1.15,2013-06-30 16:05:00,
2013-06-30 09:11:00,92.3,39.6,29.88,NE,55,4.0,7.0,16,0.00,,,0.00,Wunderground v.1.15,2013-06-30 16:11:00,
2013-06-30 09:17:00,92.6,38.2,29.88,ENE,71,4.0,7.0,15,0.00,,,0.00,Wunderground v.1.15,2013-06-30 16:17:00,
2013-06-30 09:22:00,92.7,39.9,29.88,NE,46,3.0,7.0,16,0.00,,,0.00,Wunderground v.1.15,2013-06-30 16:22:00,
2013-06-30 09:28:00,92.9,40.1,29.88,ENE,78,3.0,7.0,16,0.00,,,0.00,Wunderground v.1.15,2013-06-30 16:28:00,
2013-06-30 09:33:00,93.7,40.7,29.88,NE,53,3.0,7.0,16,0.00,,,0.00,Wunderground v.1.15,2013-06-30 16:33:00,
2013-06-30 09:39:00,94.2,39.5,29.88,East,86,3.0,7.0,15,0.00,,,0.00,Wunderground v.1.15,2013-06-30 16:39:00,
2013-06-30 09:45:00,94.7,39.9,29.88,East,82,3.0,7.0,15,0.00,,,0.00,Wunderground v.1.15,2013-06-30 16:45:00,
2013-06-30 09:50:00,94.6,38.0,29.87,SE,143,3.0,3.0,14,0.00,,,0.00,Wunderground v.1.15,2013-06-30 16:50:00,
2013-06-30 09:56:00,95.1,38.4,29.87,ENE,65,3.0,7.0,14,0.00,,,0.00,Wunderground v.1.15,2013-06-30 16:56:00,
2013-06-30 10:02:00,95.2,38.5,29.87,ENE,67,3.0,7.0,14,0.00,,,0.00,Wunderground v.1.15,2013-06-30 17:02:00,
2013-06-30 10:07:00,95.2,36.6,29.87,ENE,64,3.0,7.0,13,0.00,,,0.00,Wunderground v.1.15,2013-06-30 17:07:00,
2013-06-30 10:13:00,95.4,38.6,29.87,SSE,149,3.0,7.0,14,0.00,,,0.00,Wunderground v.1.15,2013-06-30 17:13:00,
2013-06-30 10:19:00,95.9,37.1,29.87,SSE,153,2.0,7.0,13,0.00,,,0.00,Wunderground v.1.15,2013-06-30 17:19:00,
2013-06-30 10:24:00,95.9,37.1,29.87,ESE,108,2.0,7.0,13,0.00,,,0.00,Wunderground v.1.15,2013-06-30 17:24:00,
2013-06-30 10:30:00,95.9,39.0,29.87,ENE,70,1.0,7.0,14,0.00,,,0.00,Wunderground v.1.15,2013-06-30 17:30:00,
2013-06-30 10:36:00,95.7,37.0,29.87,NE,46,3.0,7.0,13,0.00,,,0.00,Wunderground v.1.15,2013-06-30 17:36:00,
2013-06-30 10:41:00,95.4,36.8,29.87,NNE,32,4.0,8.0,13,0.00,,,0.00,Wunderground v.1.15,2013-06-30 17:41:00,
2013-06-30 10:47:00,95.4,36.8,29.87,WNW,296,3.0,8.0,13,0.00,,,0.00,Wunderground v.1.15,2013-06-30 17:47:00,
2013-06-30 10:53:00,95.4,38.6,29.86,NW,304,2.0,7.0,14,0.00,,,0.00,Wunderground v.1.15,2013-06-30 17:53:00,
2013-06-30 10:58:00,96.3,37.5,29.86,East,86,1.0,7.0,13,0.00,,,0.00,Wunderground v.1.15,2013-06-30 17:58:00,
2013-06-30 11:04:00,96.5,37.6,29.86,North,5,3.0,7.0,13,0.00,,,0.00,Wunderground v.1.15,2013-06-30 18:04:00,
2013-06-30 11:10:00,96.3,37.5,29.86,NE,55,4.0,7.0,13,0.00,,,0.00,Wunderground v.1.15,2013-06-30 18:10:00,
2013-06-30 11:15:00,95.6,36.9,29.86,North,4,4.0,7.0,13,0.00,,,0.00,Wunderground v.1.15,2013-06-30 18:15:00,
2013-06-30 11:21:00,95.1,38.4,29.86,North,5,2.0,7.0,14,0.00,,,0.00,Wunderground v.1.15,2013-06-30 18:21:00,
2013-06-30 11:27:00,95.3,38.6,29.85,NNW,342,1.0,7.0,14,0.00,,,0.00,Wunderground v.1.15,2013-06-30 18:27:00,
2013-06-30 11:32:00,95.3,36.7,29.85,WSW,255,2.0,7.0,13,0.00,,,0.00,Wunderground v.1.15,2013-06-30 18:32:00,
2013-06-30 11:38:00,95.8,37.1,29.85,SSW,201,2.0,7.0,13,0.00,,,0.00,Wunderground v.1.15,2013-06-30 18:38:00,
2013-06-30 11:43:00,96.9,35.9,29.85,NW,322,2.0,7.0,12,0.00,,,0.00,Wunderground v.1.15,2013-06-30 18:43:00,
2013-06-30 11:49:00,97.2,38.2,29.85,West,270,1.0,7.0,13,0.00,,,0.00,Wunderground v.1.15,2013-06-30 18:49:00,
2013-06-30 11:55:00,97.5,36.4,29.84,NNW,332,2.0,7.0,12,0.00,,,0.00,Wunderground v.1.15,2013-06-30 18:55:00,
2013-06-30 12:00:00,96.6,35.7,29.84,NE,43,4.0,4.0,12,0.00,,,0.00,Wunderground v.1.15,2013-06-30 19:00:00,
2013-06-30 12:06:00,96.3,35.4,29.84,ENE,60,2.0,7.0,12,0.00,,,0.00,Wunderground v.1.15,2013-06-30 19:06:00,
2013-06-30 12:12:00,96.8,35.8,29.84,SSW,212,1.0,7.0,12,0.00,,,0.00,Wunderground v.1.15,2013-06-30 19:12:00,
2013-06-30 12:18:00,97.0,36.0,29.83,ESE,103,1.0,7.0,12,0.00,,,0.00,Wunderground v.1.15,2013-06-30 19:18:00,
2013-06-30 12:24:00,97.2,36.1,29.83,NNE,18,1.0,7.0,12,0.00,,,0.00,Wunderground v.1.15,2013-06-30 19:24:00,
2013-06-30 12:30:00,95.9,37.1,29.83,WSW,255,1.0,1.0,13,0.00,,,0.00,Wunderground v.1.15,2013-06-30 19:30:00,
2013-06-30 12:36:00,96.4,37.5,29.83,West,280,1.0,7.0,13,0.00,,,0.00,Wunderground v.1.15,2013-06-30 19:36:00,
2013-06-30 12:41:00,96.2,37.4,29.83,NE,36,1.0,7.0,13,0.00,,,0.00,Wunderground v.1.15,2013-06-30 19:41:00,
2013-06-30 12:47:00,95.8,37.1,29.83,NE,52,3.0,7.0,13,0.00,,,0.00,Wunderground v.1.15,2013-06-30 19:47:00,
2013-06-30 12:53:00,95.4,36.8,29.83,NNW,340,2.0,7.0,13,0.00,,,0.00,Wunderground v.1.15,2013-06-30 19:53:00,
2013-06-30 12:58:00,95.2,36.6,29.83,ESE,102,2.0,7.0,13,0.00,,,0.00,Wunderground v.1.15,2013-06-30 19:58:00,
2013-06-30 13:04:00,94.8,38.2,29.83,NW,314,4.0,7.0,14,0.00,,,0.00,Wunderground v.1.15,2013-06-30 20:04:00,
2013-06-30 13:10:00,94.8,38.2,29.82,NW,309,3.0,3.0,14,0.00,,,0.00,Wunderground v.1.15,2013-06-30 20:10:00,
2013-06-30 13:15:00,94.6,38.0,29.82,NNE,13,3.0,7.0,14,0.00,,,0.00,Wunderground v.1.15,2013-06-30 20:15:00,
2013-06-30 13:21:00,94.5,37.9,29.82,NE,40,3.0,7.0,14,0.00,,,0.00,Wunderground v.1.15,2013-06-30 20:21:00,
2013-06-30 13:27:00,94.4,39.6,29.82,North,1,4.0,8.0,15,0.00,,,0.00,Wunderground v.1.15,2013-06-30 20:27:00,
2013-06-30 13:32:00,94.2,37.7,29.81,WSW,251,6.0,8.0,14,0.00,,,0.00,Wunderground v.1.15,2013-06-30 20:32:00,
2013-06-30 13:38:00,94.0,37.5,29.80,North,351,5.0,8.0,14,0.00,,,0.00,Wunderground v.1.15,2013-06-30 20:38:00,
2013-06-30 13:44:00,94.6,38.0,29.80,ENE,58,3.0,7.0,14,0.00,,,0.00,Wunderground v.1.15,2013-06-30 20:44:00,
2013-06-30 13:49:00,95.9,39.0,29.80,NNE,27,3.0,7.0,14,0.00,,,0.00,Wunderground v.1.15,2013-06-30 20:49:00,
2013-06-30 13:55:00,97.1,40.0,29.79,ENE,67,2.0,7.0,14,0.00,,,0.00,Wunderground v.1.15,2013-06-30 20:55:00,
2013-06-30 14:01:00,97.5,38.4,29.79,North,6,4.0,7.0,13,0.00,,,0.00,Wunderground v.1.15,2013-06-30 21:01:00,
2013-06-30 14:07:00,97.3,38.2,29.79,WNW,287,5.0,7.0,13,0.00,,,0.00,Wunderground v.1.15,2013-06-30 21:07:00,
2013-06-30 14:13:00,97.3,38.2,29.78,NNE,17,4.0,9.0,13,0.00,,,0.00,Wunderground v.1.15,2013-06-30 21:13:00,
2013-06-30 14:19:00,97.0,38.0,29.78,NW,306,6.0,9.0,13,0.00,,,0.00,Wunderground v.1.15,2013-06-30 21:19:00,
2013-06-30 14:24:00,97.2,38.2,29.78,NNW,347,5.0,7.0,13,0.00,,,0.00,Wunderground v.1.15,2013-06-30 21:24:00,
2013-06-30 14:30:00,97.8,38.6,29.77,NW,308,4.0,7.0,13,0.00,,,0.00,Wunderground v.1.15,2013-06-30 21:30:00,
2013-06-30 14:36:00,97.7,38.5,29.77,NNE,25,6.0,10.0,13,0.00,,,0.00,Wunderground v.1.15,2013-06-30 21:36:00,
2013-06-30 14:42:00,98.1,36.8,29.77,ENE,64,6.0,7.0,12,0.00,,,0.00,Wunderground v.1.15,2013-06-30 21:42:00,
2013-06-30 14:47:00,97.9,36.7,29.76,NNW,338,4.0,7.0,12,0.00,,,0.00,Wunderground v.1.15,2013-06-30 21:47:00,
2013-06-30 14:53:00,98.2,36.9,29.76,NW,309,4.0,7.0,12,0.00,,,0.00,Wunderground v.1.15,2013-06-30 21:53:00,
2013-06-30 14:59:00,98.4,41.0,29.76,WSW,248,4.0,7.0,14,0.00,,,0.00,Wunderground v.1.15,2013-06-30 21:59:00,
2013-06-30 15:04:00,98.7,41.2,29.76,West,266,3.0,8.0,14,0.00,,,0.00,Wunderground v.1.15,2013-06-30 22:04:00,
2013-06-30 15:10:00,98.4,39.1,29.76,SSW,204,4.0,4.0,13,0.00,,,0.00,Wunderground v.1.15,2013-06-30 22:10:00,
2013-06-30 15:16:00,98.5,39.2,29.76,West,271,3.0,7.0,13,0.00,,,0.00,Wunderground v.1.15,2013-06-30 22:16:00,
2013-06-30 15:21:00,98.8,39.4,29.75,SE,124,4.0,7.0,13,0.00,,,0.00,Wunderground v.1.15,2013-06-30 22:21:00,
2013-06-30 15:27:00,99.8,40.2,29.75,NE,41,3.0,7.0,13,0.00,,,0.00,Wunderground v.1.15,2013-06-30 22:27:00,
2013-06-30 15:32:00,98.5,39.2,29.75,North,9,4.0,7.0,13,0.00,,,0.00,Wunderground v.1.15,2013-06-30 22:32:00,
2013-06-30 15:38:00,97.5,38.4,29.75,NNW,330,6.0,8.0,13,0.00,,,0.00,Wunderground v.1.15,2013-06-30 22:38:00,
2013-06-30 15:44:00,97.2,40.1,29.74,North,349,5.0,7.0,14,0.00,,,0.00,Wunderground v.1.15,2013-06-30 22:44:00,
2013-06-30 15:50:00,97.0,39.9,29.74,WSW,238,4.0,4.0,14,0.00,,,0.00,Wunderground v.1.15,2013-06-30 22:50:00,
2013-06-30 15:55:00,96.7,39.7,29.74,West,260,4.0,7.0,14,0.00,,,0.00,Wunderground v.1.15,2013-06-30 22:55:00,
2013-06-30 16:01:00,96.7,39.7,29.74,NNW,328,3.0,7.0,14,0.00,,,0.00,Wunderground v.1.15,2013-06-30 23:01:00,
2013-06-30 16:06:00,96.8,39.7,29.74,West,260,3.0,7.0,14,0.00,,,0.00,Wunderground v.1.15,2013-06-30 23:06:00,
2013-06-30 16:12:00,96.9,39.8,29.74,SSW,208,2.0,7.0,14,0.00,,,0.00,Wunderground v.1.15,2013-06-30 23:12:00,
2013-06-30 16:17:00,96.5,39.5,29.74,SW,214,1.0,7.0,14,0.00,,,0.00,Wunderground v.1.15,2013-06-30 23:17:00,
2013-06-30 16:23:00,96.1,41.0,29.74,WNW,290,2.0,7.0,15,0.00,,,0.00,Wunderground v.1.15,2013-06-30 23:23:00,
2013-06-30 16:29:00,95.6,42.3,29.74,WNW,292,3.0,9.0,16,0.00,,,0.00,Wunderground v.1.15,2013-06-30 23:29:00,
2013-06-30 16:35:00,91.8,49.9,29.74,WSW,238,4.0,9.0,24,0.00,,,0.01,Wunderground v.1.15,2013-06-30 23:35:00,
2013-06-30 16:40:00,90.7,50.0,29.74,SSW,200,5.0,5.0,25,0.00,,,0.01,Wunderground v.1.15,2013-06-30 23:40:00,
2013-06-30 16:46:00,90.1,48.4,29.73,WSW,245,4.0,9.0,24,0.00,,,0.01,Wunderground v.1.15,2013-06-30 23:46:00,
2013-06-30 16:52:00,90.5,45.2,29.73,SW,224,5.0,8.0,21,0.00,,,0.01,Wunderground v.1.15,2013-06-30 23:52:00,
2013-06-30 16:57:00,88.4,51.1,29.74,West,277,7.0,11.0,28,0.00,,,0.01,Wunderground v.1.15,2013-06-30 23:57:00,
2013-06-30 17:03:00,85.3,54.5,29.74,West,260,9.0,10.0,35,0.00,,,0.01,Wunderground v.1.15,2013-07-01 00:03:00,
2013-06-30 17:09:00,84.7,54.0,29.75,WSW,257,8.0,17.0,35,0.00,,,0.01,Wunderground v.1.15,2013-07-01 00:09:00,
2013-06-30 17:14:00,84.2,53.6,29.75,SW,218,7.0,8.0,35,0.00,,,0.01,Wunderground v.1.15,2013-07-01 00:14:00,
2013-06-30 17:20:00,83.5,53.7,29.76,WSW,243,7.0,11.0,36,0.00,,,0.01,Wunderground v.1.15,2013-07-01 00:20:00,
2013-06-30 17:25:00,83.3,52.8,29.76,South,187,7.0,11.0,35,0.00,,,0.01,Wunderground v.1.15,2013-07-01 00:25:00,
2013-06-30 17:31:00,83.0,53.3,29.77,SSE,160,7.0,7.0,36,0.00,,,0.01,Wunderground v.1.15,2013-07-01 00:31:00,
2013-06-30 17:37:00,82.9,52.4,29.77,SSE,158,7.0,9.0,35,0.00,,,0.01,Wunderground v.1.15,2013-07-01 00:37:00,
2013-06-30 17:42:00,82.5,51.3,29.78,South,174,7.0,7.0,34,0.00,,,0.01,Wunderground v.1.15,2013-07-01 00:42:00,
2013-06-30 17:48:00,82.2,51.0,29.78,SW,217,6.0,9.0,34,0.00,,,0.01,Wunderground v.1.15,2013-07-01 00:48:00,
2013-06-30 17:54:00,81.3,51.8,29.78,South,183,8.0,9.0,36,0.00,,,0.01,Wunderground v.1.15,2013-07-01 00:54:00,
2013-06-30 17:59:00,79.7,52.5,29.79,SSE,160,8.0,11.0,39,0.00,,,0.01,Wunderground v.1.15,2013-07-01 00:59:00,
2013-06-30 18:05:00,78.8,53.1,29.79,WSW,245,8.0,11.0,41,0.00,,,0.01,Wunderground v.1.15,2013-07-01 01:05:00,
2013-06-30 18:11:00,77.7,54.0,29.80,WSW,238,7.0,9.0,44,0.00,,,0.01,Wunderground v.1.15,2013-07-01 01:11:00,
2013-06-30 18:16:00,77.0,53.4,29.82,SW,230,6.0,9.0,44,0.00,,,0.01,Wunderground v.1.15,2013-07-01 01:16:00,
2013-06-30 18:22:00,77.0,54.0,29.84,ESE,107,5.0,7.0,45,0.00,,,0.01,Wunderground v.1.15,2013-07-01 01:22:00,
2013-06-30 18:27:00,77.3,54.3,29.86,East,82,2.0,8.0,45,0.00,,,0.01,Wunderground v.1.15,2013-07-01 01:27:00,
2013-06-30 18:33:00,74.6,59.3,29.91,NE,35,5.0,16.0,59,0.73,,,0.08,Wunderground v.1.15,2013-07-01 01:33:00,
2013-06-30 18:39:00,70.2,60.0,29.94,NNE,32,10.0,16.0,70,0.98,,,0.17,Wunderground v.1.15,2013-07-01 01:39:00,
2013-06-30 18:45:00,67.9,60.8,29.96,NNW,347,8.0,10.0,78,0.47,,,0.26,Wunderground v.1.15,2013-07-01 01:45:00,
2013-06-30 18:50:00,67.3,61.3,29.96,WSW,242,3.0,3.0,81,0.26,,,0.29,Wunderground v.1.15,2013-07-01 01:50:00,
2013-06-30 18:56:00,67.5,61.1,29.95,SW,229,1.0,7.0,80,0.27,,,0.34,Wunderground v.1.15,2013-07-01 01:56:00,
2013-06-30 19:02:00,67.6,60.9,29.93,WSW,252,5.0,8.0,79,0.12,,,0.35,Wunderground v.1.15,2013-07-01 02:02:00,
2013-06-30 19:07:00,66.5,60.8,29.93,South,186,9.0,12.0,82,0.12,,,0.36,Wunderground v.1.15,2013-07-01 02:07:00,
2013-06-30 19:13:00,65.7,60.4,29.91,SW,214,11.0,16.0,83,0.08,,,0.36,Wunderground v.1.15,2013-07-01 02:13:00,
2013-06-30 19:19:00,65.7,60.1,29.88,SSW,197,12.0,16.0,82,0.07,,,0.37,Wunderground v.1.15,2013-07-01 02:19:00,
2013-06-30 19:24:00,66.0,60.3,29.89,SSW,194,12.0,19.0,82,0.06,,,0.37,Wunderground v.1.15,2013-07-01 02:24:00,
2013-06-30 19:30:00,67.2,59.4,29.88,West,277,9.0,9.0,76,0.04,,,0.37,Wunderground v.1.15,2013-07-01 02:30:00,
2013-06-30 19:36:00,67.4,59.2,29.89,WSW,240,9.0,11.0,75,0.00,,,0.37,Wunderground v.1.15,2013-07-01 02:36:00,
2013-06-30 19:41:00,68.5,57.9,29.89,West,262,10.0,10.0,69,0.00,,,0.37,Wunderground v.1.15,2013-07-01 02:41:00,
2013-06-30 19:47:00,69.6,56.9,29.90,WNW,290,11.0,15.0,64,0.00,,,0.37,Wunderground v.1.15,2013-07-01 02:47:00,
2013-06-30 19:53:00,69.9,57.6,29.90,WNW,294,11.0,13.0,65,0.00,,,0.37,Wunderground v.1.15,2013-07-01 02:53:00,
2013-06-30 19:59:00,70.0,56.8,29.90,SW,218,12.0,18.0,63,0.00,,,0.37,Wunderground v.1.15,2013-07-01 02:59:00,
2013-06-30 20:04:00,70.2,56.6,29.91,SW,231,12.0,17.0,62,0.00,,,0.37,Wunderground v.1.15,2013-07-01 03:04:00,
2013-06-30 20:10:00,69.9,56.3,29.91,SSW,212,10.0,10.0,62,0.00,,,0.37,Wunderground v.1.15,2013-07-01 03:10:00,
2013-06-30 20:16:00,70.2,55.7,29.90,South,191,10.0,16.0,60,0.00,,,0.37,Wunderground v.1.15,2013-07-01 03:16:00,
2013-06-30 20:21:00,70.5,55.5,29.90,South,172,11.0,12.0,59,0.00,,,0.37,Wunderground v.1.15,2013-07-01 03:21:00,
2013-06-30 20:27:00,71.0,55.5,29.91,South,179,11.0,13.0,58,0.00,,,0.37,Wunderground v.1.15,2013-07-01 03:27:00,
2013-06-30 20:33:00,71.3,54.8,29.90,South,179,11.0,12.0,56,0.00,,,0.37,Wunderground v.1.15,2013-07-01 03:33:00,
2013-06-30 20:38:00,71.5,55.0,29.91,SW,235,10.0,12.0,56,0.00,,,0.37,Wunderground v.1.15,2013-07-01 03:38:00,
2013-06-30 20:44:00,71.6,55.1,29.91,SSW,203,10.0,12.0,56,0.00,,,0.37,Wunderground v.1.15,2013-07-01 03:44:00,
2013-06-30 20:49:00,71.5,55.5,29.91,South,190,11.0,19.0,57,0.00,,,0.37,Wunderground v.1.15,2013-07-01 03:49:00,
2013-06-30 20:55:00,71.2,55.2,29.92,SSE,165,10.0,11.0,57,0.00,,,0.37,Wunderground v.1.15,2013-07-01 03:55:00,
2013-06-30 21:01:00,70.5,55.9,29.92,SSW,200,10.0,15.0,60,0.00,,,0.37,Wunderground v.1.15,2013-07-01 04:01:00,
2013-06-30 21:03:00,70.3,55.8,29.92,West,270,11.0,16.0,60,0.00,,,0.37,Wunderground v.1.15,2013-07-01 04:03:00,
2013-06-30 21:04:00,70.2,56.1,29.92,SSE,158,12.0,16.0,61,0.00,,,0.37,Wunderground v.1.15,2013-07-01 04:04:00,
2013-06-30 21:06:00,70.0,55.9,29.92,WSW,242,12.0,16.0,61,0.00,,,0.37,Wunderground v.1.15,2013-07-01 04:06:00,
2013-06-30 21:10:00,69.7,56.1,29.92,South,180,12.0,12.0,62,0.00,,,0.37,Wunderground v.1.15,2013-07-01 04:10:00,
2013-06-30 21:15:00,69.5,56.3,29.92,WSW,255,10.0,16.0,63,0.00,,,0.37,Wunderground v.1.15,2013-07-01 04:15:00,
2013-06-30 21:21:00,69.7,56.1,29.92,South,172,10.0,10.0,62,0.00,,,0.37,Wunderground v.1.15,2013-07-01 04:21:00,
2013-06-30 21:26:00,70.0,55.5,29.93,West,262,10.0,12.0,60,0.00,,,0.37,Wunderground v.1.15,2013-07-01 04:26:00,
2013-06-30 21:32:00,70.1,55.6,29.94,SW,218,11.0,15.0,60,0.00,,,0.37,Wunderground v.1.15,2013-07-01 04:32:00,
2013-06-30 21:38:00,70.5,55.0,29.94,SW,236,12.0,17.0,58,0.00,,,0.37,Wunderground v.1.15,2013-07-01 04:38:00,
2013-06-30 21:43:00,70.8,54.8,29.94,WSW,248,11.0,12.0,57,0.00,,,0.37,Wunderground v.1.15,2013-07-01 04:43:00,
2013-06-30 21:49:00,71.2,55.2,29.93,WSW,248,9.0,14.0,57,0.00,,,0.37,Wunderground v.1.15,2013-07-01 04:49:00,
2013-06-30 21:55:00,71.3,55.8,29.91,WSW,255,9.0,12.0,58,0.00,,,0.37,Wunderground v.1.15,2013-07-01 04:55:00,
2013-06-30 22:00:00,72.0,54.4,29.89,WSW,237,9.0,9.0,54,0.00,,,0.37,Wunderground v.1.15,2013-07-01 05:00:00,
2013-06-30 22:05:00,72.4,53.8,29.89,West,263,9.0,16.0,52,0.00,,,0.37,Wunderground v.1.15,2013-07-01 05:05:00,
2013-06-30 22:11:00,73.2,52.9,29.89,WSW,255,9.0,10.0,49,0.00,,,0.37,Wunderground v.1.15,2013-07-01 05:11:00,
2013-06-30 22:17:00,74.1,52.6,29.88,SW,233,9.0,12.0,47,0.00,,,0.37,Wunderground v.1.15,2013-07-01 05:17:00,
2013-06-30 22:22:00,75.0,52.8,29.89,WSW,238,7.0,8.0,46,0.00,,,0.37,Wunderground v.1.15,2013-07-01 05:22:00,
2013-06-30 22:28:00,75.7,52.2,29.90,SSW,207,5.0,8.0,44,0.00,,,0.37,Wunderground v.1.15,2013-07-01 05:28:00,
2013-06-30 22:34:00,75.7,52.8,29.90,NNW,338,3.0,7.0,45,0.00,,,0.37,Wunderground v.1.15,2013-07-01 05:34:00,
2013-06-30 22:39:00,75.7,52.8,29.91,NNE,27,2.0,7.0,45,0.00,,,0.37,Wunderground v.1.15,2013-07-01 05:39:00,
2013-06-30 22:45:00,75.6,53.4,29.91,NNE,30,1.0,7.0,46,0.00,,,0.37,Wunderground v.1.15,2013-07-01 05:45:00,
2013-06-30 22:51:00,74.8,54.4,29.92,East,91,1.0,7.0,49,0.00,,,0.37,Wunderground v.1.15,2013-07-01 05:51:00,
2013-06-30 22:56:00,73.8,56.1,29.92,ENE,74,2.0,7.0,54,0.00,,,0.37,Wunderground v.1.15,2013-07-01 05:56:00,
2013-06-30 23:02:00,72.7,56.1,29.92,SSE,158,3.0,7.0,56,0.00,,,0.37,Wunderground v.1.15,2013-07-01 06:02:00,
2013-06-30 23:07:00,72.4,56.8,29.92,ESE,121,3.0,7.0,58,0.00,,,0.37,Wunderground v.1.15,2013-07-01 06:07:00,
2013-06-30 23:13:00,72.0,58.3,29.92,SSE,148,2.0,7.0,62,0.00,,,0.37,Wunderground v.1.15,2013-07-01 06:13:00,
2013-06-30 23:19:00,71.8,58.1,29.92,East,101,1.0,7.0,62,0.00,,,0.37,Wunderground v.1.15,2013-07-01 06:19:00,
2013-06-30 23:24:00,71.6,58.3,29.93,ENE,77,1.0,7.0,63,0.00,,,0.37,Wunderground v.1.15,2013-07-01 06:24:00,
2013-06-30 23:30:00,71.5,58.2,29.94,ESE,103,1.0,7.0,63,0.00,,,0.37,Wunderground v.1.15,2013-07-01 06:30:00,
2013-06-30 23:36:00,71.4,58.1,29.94,NE,46,2.0,7.0,63,0.00,,,0.37,Wunderground v.1.15,2013-07-01 06:36:00,
2013-06-30 23:41:00,71.3,58.1,29.95,NNE,22,2.0,7.0,63,0.00,,,0.37,Wunderground v.1.15,2013-07-01 06:41:00,
2013-06-30 23:47:00,70.7,57.9,29.95,NW,325,2.0,7.0,64,0.00,,,0.37,Wunderground v.1.15,2013-07-01 06:47:00,
2013-06-30 23:52:00,70.1,57.4,29.95,NNW,329,2.0,7.0,64,0.00,,,0.37,Wunderground v.1.15,2013-07-01 06:52:00,
2013-06-30 23:58:00,69.9,57.6,29.94,SW,235,1.0,7.0,65,0.00,,,0.37,Wunderground v.1.15,2013-07-01 06:58:00,